Location: Buckeye Ditch
(40.9104°N, 122.9517°W)
Time: 08:34:07
(UTC+00:00)

Cosmos 1452 Rocket - Visible Passes

Search period start: 22 July 2024 00:00
Search period end: 01 August 2024 00:00
Orbit: 765 x 773 km, 74.1° (Epoch: 21 July)

Date Brightness Start Highest point End Pass type
(mag) Time Alt. Az. Time Alt. Az. Time Alt. Az.
22 Jul 5.5 07:15:37 16° ENE 07:15:37 16° ENE 07:17:29 10° NE visible
22 Jul 3.9 08:55:53 54° WNW 08:55:53 54° WNW 09:00:50 10° N visible
23 Jul 3.7 08:19:33 66° NNE 08:19:33 66° NNE 08:24:02 10° NNE visible
23 Jul 5.8 09:59:49 11° WNW 10:01:36 13° NW 10:04:00 10° NNW visible
24 Jul 4.3 07:43:11 42° ENE 07:43:11 42° ENE 07:47:03 10° NNE visible
24 Jul 5.3 09:23:27 20° WNW 09:24:21 21° WNW 09:28:16 10° N visible
25 Jul 5.0 07:06:48 25° ENE 07:06:48 25° ENE 07:09:46 10° NE visible
25 Jul 4.7 08:47:04 33° WNW 08:47:13 33° WNW 08:51:58 10° N visible
26 Jul 5.5 06:30:23 15° ENE 06:30:23 15° ENE 06:32:00 10° NE visible
26 Jul 4.0 08:10:39 54° NW 08:10:39 54° NW 08:15:23 10° N visible
27 Jul 3.8 07:34:12 63° NNE 07:34:12 63° NNE 07:38:35 10° NNE visible
27 Jul 5.9 09:14:27 12° WNW 09:16:07 13° NW 09:18:35 10° NNW visible
28 Jul 4.2 06:57:42 42° ENE 06:57:42 42° ENE 07:01:34 10° NNE visible
28 Jul 5.4 08:37:57 20° WNW 08:38:52 21° WNW 08:42:50 10° N visible
29 Jul 4.8 06:21:11 26° ENE 06:21:11 26° ENE 06:24:17 10° NE visible
29 Jul 4.7 08:01:26 33° WNW 08:01:44 34° WNW 08:06:30 10° N visible
30 Jul 5.4 05:44:37 15° ENE 05:44:37 15° ENE 05:46:30 10° NE visible
30 Jul 3.9 07:24:52 56° WNW 07:24:52 56° WNW 07:29:55 10° N visible
31 Jul 3.5 06:48:14 76° NE 06:48:14 76° NE 06:53:06 10° NNE visible
31 Jul 6.0 08:28:29 11° WNW 08:30:38 13° NW 08:33:09 10° NNW visible
